Погода в Или

Россия / Иркутская область     54°09′58″N   101°22′59″E
темп.,
°C
ветер,
м/с
пор.,
м/с
влажн.,
%
обл.,
%
осадки,
мм/ч
давл.,
гПа
погр.,
м
23 июня, ср
ср2323:00+11ююз1171100 0.0 101010
02:00+11в2365100 0.0 101043
05:00+10вюв2271100 0.0 100929
08:00+14юв3569100 0.0 1008292
11:00+20вюв57637 0.0 1006748
14:00+24вюв57558 0.0 10041181
17:00+25вюв455353 0.0 10041329
20:00+23юз016999 0.0 100411
24 июня, чт
чт2423:00+13сз6129358 1.8 1006360
02:00+12сз71397100 3.6 1007582
05:00+11сз51196100 0.4 1008579
08:00+11сз41095100 0.5 1008609
11:00+12зсз5991100 0.1 1008609
14:00+14сз4579100 0.1 1007733
17:00+17зсз456737 0.0 1005954
20:00+17сз12725 0.0 1006319
25 июня, пт
пт2523:00+12з228790 0.0 100613
02:00+11ююв11901 0.0 100612
05:00+10юв22940 0.0 100614
08:00+13ююв22780 0.0 1007290
11:00+18юв33580 0.0 1006940
14:00+22в22455 0.0 10041348
17:00+24в3444100 0.0 10031235
20:00+20в257060 0.0 1003127
26 июня, сб
сб2623:00+15в347632 0.0 100346
02:00+13всв33715 0.0 100334
05:00+11сз4882100 0.0 1005159
08:00+12зсз91382100 0.0 1008951
11:00+13сз71178100 0.1 1010799
14:00+16ссз466494 0.1 10111295
17:00+16зсз246890 0.0 1011656
20:00+17з126815 0.0 101094
27 июня, вс
вс2723:00+11ссз22816 0.0 101212
02:00+10св118499 0.0 101210
05:00+11вюв1180100 0.0 101210
08:00+15в127182 0.0 1012248
11:00+19всв2252100 0.0 10111064
14:00+21св2246100 0.0 10101452
17:00+21с1245100 0.0 10091126
20:00+17ссз51164100 0.0 1009432